TimePDT,TemperatureF,Dew PointF,Humidity,Sea Level PressureIn,VisibilityMPH,Wind Direction,Wind SpeedMPH,Gust SpeedMPH,PrecipitationIn,Events,Conditions,WindDirDegrees,DateUTC
12:52 AM,71.1,35.1,27,29.81,-9999.0,WNW,3.5,-,N/A,,Unknown,290,2013-09-02 07:52:00
1:52 AM,72.0,48.0,43,29.81,-9999.0,SSW,6.9,-,N/A,,Unknown,200,2013-09-02 08:52:00
2:52 AM,71.1,48.9,45,29.82,-9999.0,SSW,10.4,-,N/A,,Unknown,210,2013-09-02 09:52:00
3:52 AM,70.0,50.0,49,29.81,-9999.0,SSW,8.1,-,N/A,,Unknown,200,2013-09-02 10:52:00
4:52 AM,66.0,48.9,54,29.83,-9999.0,SSW,4.6,-,N/A,,Unknown,210,2013-09-02 11:52:00
5:52 AM,64.0,48.0,56,29.84,-9999.0,ESE,5.8,-,N/A,,Unknown,120,2013-09-02 12:52:00
6:52 AM,66.9,50.0,54,29.86,-9999.0,SE,3.5,-,N/A,,Unknown,140,2013-09-02 13:52:00
7:52 AM,72.0,51.1,48,29.87,-9999.0,Calm,Calm,-,N/A,,Unknown,0,2013-09-02 14:52:00
8:52 AM,75.9,50.0,40,29.88,-9999.0,ENE,4.6,-,N/A,,Unknown,60,2013-09-02 15:52:00
9:52 AM,75.9,50.0,40,29.89,-9999.0,SSW,3.5,-,N/A,,Unknown,200,2013-09-02 16:52:00
10:52 AM,81.0,50.0,34,29.89,-9999.0,WSW,16.1,20.7,N/A,,Unknown,240,2013-09-02 17:52:00
11:52 AM,79.0,48.9,35,29.90,-9999.0,WSW,10.4,-,N/A,,Unknown,240,2013-09-02 18:52:00
12:52 PM,81.0,51.1,35,29.89,-9999.0,WSW,15.0,21.9,N/A,,Unknown,240,2013-09-02 19:52:00
1:52 PM,81.0,50.0,34,29.86,-9999.0,South,5.8,-,N/A,,Unknown,170,2013-09-02 20:52:00
2:52 PM,82.0,50.0,33,29.84,-9999.0,Calm,Calm,-,N/A,,Unknown,0,2013-09-02 21:52:00
3:24 PM,77.0,53.6,44,29.98,-9999.0,West,18.4,27.6,N/A,,Unknown,260,2013-09-02 22:24:00
3:52 PM,69.1,61.0,75,29.91,-9999.0,SW,11.5,-,0.15,,Unknown,230,2013-09-02 22:52:00
4:52 PM,71.1,57.0,61,29.89,-9999.0,SW,12.7,23.0,N/A,,Unknown,220,2013-09-02 23:52:00
5:52 PM,71.1,52.0,51,29.93,-9999.0,SW,26.5,39.1,N/A,,Unknown,220,2013-09-03 00:52:00
6:52 PM,61.0,57.0,87,29.95,-9999.0,SSW,8.1,-,0.05,,Unknown,200,2013-09-03 01:52:00
7:52 PM,63.0,59.0,87,29.93,-9999.0,SSE,8.1,-,N/A,,Unknown,150,2013-09-03 02:52:00
8:52 PM,62.1,59.0,90,29.97,-9999.0,East,5.8,-,N/A,,Unknown,90,2013-09-03 03:52:00
9:52 PM,63.0,57.9,84,29.96,-9999.0,SSE,3.5,-,N/A,,Unknown,150,2013-09-03 04:52:00
10:52 PM,62.1,57.9,86,29.95,-9999.0,Calm,Calm,-,N/A,,Unknown,0,2013-09-03 05:52:00
11:52 PM,62.1,57.9,86,29.95,-9999.0,Calm,Calm,-,0.05,,Unknown,0,2013-09-03 06:52:00